Regional Weather Roundup
Issued by NWS

Home | Current Version | Previous Version | Text Only | Print | Product List | Glossary Off
Versions: 1 2 3 4 5 6 7 8 9 10 11 12 13 14 15 16 17 18 19 20 21 22 23 24 25 26 27 28 29 30 31 32 33 34 35 36 37 38 39 40 41 42 43 44 45 46 47 48 49 50

579
ASUS43 KDTX 261501
RWRMI
MICHIGAN HOURLY REGIONAL WEATHER ROUNDUP
NATIONAL WEATHER SERVICE DETROIT/PONTIAC MI
1100 AM EDT WED APR 26 2017

NOTE: "FAIR" INDICATES FEW OR NO CLOUDS BELOW 12,000 FEET WITH NO
SIGNIFICANT WEATHER AND/OR OBSTRUCTION TO VISIBILITY.

MIZ047>049-052>055-059>063-066>070-074>076-081>083-261600-
SOUTHEAST LOWER MICHIGAN

CITY           SKY/WX    TMP DP  RH WIND       PRES   REMARKS
ADRIAN         MOSUNNY   69  58  67 S13       29.65F
ALMA           PTSUNNY   66  60  79 SE13      29.60F
ANN ARBOR      MOSUNNY   66  58  75 E9        29.66F
BAD AXE        MOSUNNY   64  55  73 SE10      29.66F
CARO           CLOUDY    66  57  71 SE9       29.65R
DETROIT CITY   SUNNY     65  57  75 S16       29.70R
DETROIT        CLOUDY    65  57  75 SE10G17   29.69S
FLINT          PTSUNNY   66  56  70 S18       29.65R
GROSSE ILE     CLOUDY    60  54  81 SE7       29.69R
HILLSDALE      MOSUNNY   66  55  68 SE9G20    29.62F
HOWELL         MOSUNNY   68  55  64 S13       29.64F

CITY           SKY/WX    TMP DP  RH WIND       PRES   REMARKS
JACKSON        MOSUNNY   69  57  65 S16       29.62F
LAMBERTVILLE   CLOUDY    70  58  65 S10G16    29.66F
LANSING        CLOUDY    69  56  62 SE17G24   29.60F
LAPEER         FAIR      64  55  73 S9G20     29.68R
MASON          CLOUDY    69  58  68 SE14G22   29.62S
MONROE         CLOUDY    66  57  73 SE9G22    29.67F
MT. CLEMENS    PTSUNNY   61  58  90 SE18      29.69F
PONTIAC        CLOUDY    65  56  72 SE15      29.67R
PORT HOPE        N/A     61  54  77 SE18G26   29.64F
PORT HURON     SUNNY     64  54  68 SE15      29.69F
TRI CITIES     MOSUNNY   66  57  72 SE14      29.63R
MIDLAND        LGT RAIN  65  54  67 S9G17     29.62S
TROY           CLOUDY    66  55  67 SE8       29.70R
SAGINAW HB     MOSUNNY   68  54  60 SE15G21   29.63S
$$
MIZ043>046-050>051-056>058-064>065-071>073-077>080-261600-
SOUTHWEST LOWER MICHIGAN

CITY           SKY/WX    TMP DP  RH WIND       PRES   REMARKS
BATTLE CREEK   MOSUNNY   69  58  67 S14       29.57F
BENTON HARBOR  PTSUNNY   71  56  58 S13G20    29.47F
BIG RAPIDS     CLOUDY    67  55  65 SE17G24   29.53F
COLDWATER      MOSUNNY   68  58  68 SE12G18   29.59F
FREMONT        FAIR      71  54  55 SE12G21   29.48F
HOLLAND        PTSUNNY   72  57  59 S15G24    29.47F
GRAND RAPIDS   CLOUDY    71  58  63 SE17      29.52F
IONIA          FAIR      67  56  68 SE16G26   29.56F
KALAMAZOO      PTSUNNY   70  55  59 S12G21    29.55F
LUDINGTON      CLOUDY    69  57  65 SE13      29.45F
MARSHALL       CLOUDY    69  58  67 SE10      29.58F
MOUNT PLEASANT MOSUNNY   65  56  71 SE13      29.59S
MUSKEGON       CLOUDY    73  56  54 SE17      29.46F
SOUTH HAVEN    CLOUDY    70  56  60 S14G20    29.47F
$$
MIZ016>042-261600-
NORTHERN LOWER MICHIGAN

CITY           SKY/WX    TMP DP  RH WIND       PRES   REMARKS
ALPENA         CLOUDY    53  49  86 E7        29.65F
BEAVER ISLAND  CLOUDY    49  46  90 E12       29.53F FOG
BELLAIRE       MOSUNNY   70  54  56 SE12G20   29.52F
CADILLAC       PTSUNNY   68  56  64 SE13G23   29.53F
CHARLEVOIX     MOSUNNY   70  55  59 SE13      29.55S
FRANKFORT      CLOUDY    70  55  57 S14G22    29.47F
GAYLORD        CLOUDY    67  53  61 S13G22    29.57F
GRAYLING       PTSUNNY   67  55  64 SE16      29.59S
HARBOR SPRINGS PTSUNNY   69  56  63 SE6       29.54F
HOUGHTON LAKE  SUNNY     65  54  67 SE14G23   29.59F
MANISTEE       MOSUNNY   70  56  61 SE13G24   29.44F
OSCODA         CLOUDY    57  50  78 SE8       29.64F
PELLSTON       CLOUDY    65  53  65 SE10      29.56F
ROGERS CITY    CLOUDY    59  52  79 SE10G20   29.62F
TRAVERSE CITY  PTSUNNY   72  55  55 SE14G22   29.50F
$$
MIZ007>008-015-261600-
EASTERN UPPER MICHIGAN

CITY           SKY/WX    TMP DP  RH WIND       PRES   REMARKS
KINROSS        CLOUDY    47  47 100 E23       29.61F FOG
MACKINAC ISLAN FOG       40  40 100 E20G28    29.58F VSB<1/4 WCI  31
NEWBERRY       CLOUDY    49  48  97 E8        29.56F FOG
S. S. MARIE    CLOUDY    52  49  89 E12G23    29.63S FOG
MUNISING         N/A     42  42 100 NW3       29.50F
$$
MIZ004>006-011>014-085-261600-
CENTRAL UPPER MICHIGAN

CITY           SKY/WX    TMP DP  RH WIND       PRES   REMARKS
MANISTIQUE     CLOUDY    52  51  96 E7        29.51F
ESCANABA       CLOUDY    52  49  89 NE7       29.49F
MENOMINEE      CLOUDY    54  49  83 E10       29.44F
SAWYER-GWINN   CLOUDY    37  37 100 NE9       29.53S WCI  31
$$
MIZ001>003-009>011-084-261600-
WESTERN UPPER MICHIGAN

CITY           SKY/WX    TMP DP  RH WIND       PRES   REMARKS
IRON MOUNTAIN  CLOUDY    51  48  89 E5        29.44F FOG
HOUGHTON       LGT RAIN  35  32  88 E15       29.54F FOG     WCI  25
COPPER HARBOR    N/A     34  33  96 E12G23    29.60F WCI  25
IRONWOOD       LGT RAIN  33  32  96 NE7       29.51F FOG     WCI  27
$$

ABBREVIATIONS USED IN REMARKS
   TC - TEMPERATURE IN CELSIUS
  WCI - WIND CHILL INDEX
   HX - HEAT INDEX
  VSB - VISIBILITY





USA.gov is the U.S. government's official web portal to all federal, state and local government web resources and services.